Regional Weather Roundup
Issued by NWS Green Bay, WI

Home | Current Version | Previous Version | Text Only | Print | Product List | Glossary On
Versions: 1 2 3 4 5 6 7 8 9 10 11 12 13 14 15 16 17 18 19 20 21 22 23 24 25 26 27 28 29 30 31 32 33 34 35 36 37 38 39 40 41 42 43 44 45 46 47 48 49 50
000
ASUS43 KGRB 110911
RWRGRB

NORTH-CENTRAL AND NORTHEAST WISCONSIN REGIONAL WEATHER ROUNDUP
NATIONAL WEATHER SERVICE GREEN BAY WI
300 AM CST MON DEC 11 2017

WIZ005-009-010>012-018-019-111000-
NORTH CENTRAL WISCONSIN

CITY           SKY/WX    TMP DP  RH WIND       PRES   REMARKS
IRONWOOD       CLOUDY    15  10  80 S8        29.84F WCI   4
MANITOWISH WTR CLOUDY    12  12 100 S6        29.84F WCI   3
ARBOR VITAE    CLOUDY    17  14  89 S5        29.84F WCI  10
EAGLE RIVER    CLOUDY    12   9  85 S3        29.85F
LAND O LAKES   CLOUDY    13  10  88 S3        29.86F
RHINELANDER    CLOUDY    13  10  88 S5        29.87F WCI   5
PHILLIPS       CLOUDY    16  13  90 S8        29.85F WCI   5
ANTIGO         CLOUDY    17  12  81 S5        29.91F WCI  10
TOMAHAWK       CLOUDY    14  11  87 CALM      29.89F
MERRILL        CLOUDY    17  13  86 SE3       29.92F
$$

WIZ013-073-111000-
NORTHEAST WISCONSIN

CITY           SKY/WX    TMP DP  RH WIND       PRES   REMARKS
IRON MOUNTAIN  CLOUDY    13   7  77 SE5       29.93F WCI   5
MARINETTE      MOCLDY    14   8  77 CALM      30.00F
OCONTO         CLOUDY    18  11  74 CALM      30.01S
$$

WIZ017-030-035>037-045-111000-
CENTRAL WISCONSIN

CITY           SKY/WX    TMP DP  RH WIND       PRES   REMARKS
MEDFORD        LGT SNOW  17  14  85 SE6       29.87F WCI   9
WAUSAU         CLOUDY    19  13  77 SE6       29.90F
MOSINEE        CLOUDY    19  16  86 E3        29.93F
MARSHFIELD     LGT SNOW  20  17  88 SE6       29.90F FOG
WISC RAPIDS    LGT SNOW  20  15  81 SE6       29.95F
STEVENS POINT  CLOUDY    18  16  93 CALM      29.95F
WAUPACA        CLOUDY    23  17  79 CALM      29.98F
SHAWANO        CLOUDY    22  15  73 CALM      29.99S
CLINTONVILLE   NOT AVBL
WAUTOMA        CLOUDY    20  16  84 CALM      29.98F
$$

WIZ038-039-048-051-111000-
FOX VALLEY

CITY           SKY/WX    TMP DP  RH WIND       PRES   REMARKS
NWS GREEN BAY  CLOUDY    21  14  74 SE5       30.00F
APPLETON       CLOUDY    23  14  68 E3        29.97S
OSHKOSH        CLOUDY    21  15  78 CALM      29.99R
FOND DU LAC    CLOUDY    20  14  77 CALM      29.99F
$$

WIZ022-050-052-111000-
EAST CENTRAL WISCONSIN

CITY           SKY/WX    TMP DP  RH WIND       PRES   REMARKS
EPHRAIM        FAIR      15   6  69 CALM      29.99S
WASHINGTON ISL PTSUNNY   17   7  66 CALM      30.00F
STURGEON BAY   CLOUDY    17  10  74 E3        30.01S
MANITOWOC      CLOUDY    19  14  81 NW3       30.01F
SHEBOYGAN      CLOUDY    22  17  81 CALM      30.00F
$$

LMZ563-521-522-541>543-111000-
LAKESHORE

STATION/POSITION TIME  TEMP    WIND        PRES    VSBY  WAVE
                       AIR SEA DIR/SP/G                  HT/PER
                 (UTC) (F)     (DEG/KT/KT) (MB)    (MI)  (FT/S)
SHEBOYGAN LKSHOR 0900   26     230/  3/  4 1016.8F
KEWAUNEE LKSHORE 0842   18     290/  2/  3 1015.7R
NORTHPORT PIER   0840   18     280/  2/  5 1016.3S
MENOMINEE LKSHOR 0842   21     340/  3/  5 1016.1R
$$




USA.gov is the U.S. government's official web portal to all federal, state and local government web resources and services.